ARIANE 40 R/B

Satellite information

Favourite Embed

Satellite Type and Status

ROCKET BODYIN ORBIT

Key statistics

Satellite ARIANE 40 R/B at a glance.

Uptime

12409

Days in orbit

Revolutions

≈ 14.4

Per day

Orbit

SSO

Sun Synchronous Orbit

Inclination

98.2

Latest

Satellite identification and parameters

Extended collection of information and parameters for ARIANE 40 R/B.

Object identification

Identified? True

Debris? False

Object name: ARIANE 40 R/B

International designator: 1991-050F

Object number (NORAD): 21610

Object ID (CCSDS): 21610

Country: FRANCE (FR)

Current information (Y/N): Y

RCS size: LARGE

Orbital parameters

Period: 99.816 minutes

Inclination: 98.2383 deg

SMA: 7127.894 km

Apoapsis: 752.937 km

Periapsis: 746.582 km

RAAN: 243.7129 deg

Eccentricy: 0.0004458

Argument of periapsis: 98.739 deg

Mean anomaly: 261.4305 deg

Mean motion: 14.42649716 rev/day

Mean motion (dot): 0.00000233 rev/day2

B* drag term: 0.000082622 1/REarth

Two-line elements (TLE)

Creation date: July 6, 2025, 10:16 p.m.

Reference frame: TEME

Reference center: EARTH

Epoch: July 6, 2025, 6:11 p.m. UTC

TLE line 0: 0 ARIANE 40 R/B

TLE line 1: 1 21610U 91050F 25187.75780659 .00000233 00000-0 82622-4 0 9997

TLE line 2: 2 21610 98.2383 243.7129 0004458 98.7390 261.4305 14.42649716783801

Live tracking on map

Real-time ground track for satellite ARIANE 40 R/B.

In-orbit conjunctions

A list of the most updated potential collisions computed for object ARIANE 40 R/B.

Target Orbit TCA Probability of collision Miss distance Type
FENGYUN 1C DEB SSO 2025-06-23 05:11:34 0.001209229 139.0 (m) DEBRIS
FENGYUN 1C DEB SSO 2024-11-27 21:30:46 0.0001372255 406.0 (m) DEBRIS

Associated space launch

ERS (European Remote Sensing Satellite) are a family of multi-disciplinary Earth Observation Satellites.

ARIANE 40 R/B was lifted into orbit during the mission ‘Ariane 40 | ERS-1’, on board a Ariane 40 space rocket.

The launch took place on July 17, 1991, 1:46 a.m. from Ariane Launch Area 2.

For more information about the launch, click the button.

Launch to space Ariane 40 | ERS-1
Ariane 40 | ERS-1

Agency: N/A

Status: Launch Successful

Launch date: July 17, 1991, 1:46 a.m. UTC

Rocket: Ariane 40

Launch pad: Ariane Launch Area 2

Location: Guiana Space Centre, French Guiana

...

Latest news about this satellite

There are no fresh news available about this satellite. Check back as we update our databases every day.


Newsletter sign-up

Weekly statistics, charts and insights to help you stay on top of the space industry.